GW5810 Weather Reports


time (UTC)temp
F
wind
direction
speed
knots
gust
knots
rain 1hr
in
rain 24hr
in
rain mn
in
humidity
%
barometer
mb
20260506024449 43 307 3.5 7.0 0.00 0.00 0.00 93 1013.4
20260506023947 43 339 3.5 7.0 0.00 0.00 0.00 92 1013.2
20260506023448 43 338 3.5 8.7 0.00 0.00 0.00 92 1013.4
20260506022947 43 316 3.5 8.7 0.00 0.00 0.00 91 1013.4
20260506022451 43 310 2.6 6.1 0.00 0.00 0.00 90 1013.6
20260506021947 43 334 2.6 5.2 0.00 0.00 0.00 88 1013.6
20260506021447 44 339 3.5 7.0 0.00 0.00 0.00 87 1013.6
20260506020947 45 339 4.3 7.8 0.00 0.00 0.00 87 1013.5
20260506020448 45 344 4.3 7.8 0.00 0.00 0.00 85 1013.4
20260506015947 46 3 3.5 7.8 0.00 0.00 0.00 84 1013.4
20260506015443 46 349 3.5 7.8 0.00 0.00 0.00 84 1013.4
20260506014945 46 26 3.5 7.8 0.00 0.00 0.00 85 1013.5
20260506014750 46 341 3.5 7.8 0.00 0.00 0.00 84 1013.4
20260506013941 46 328 2.6 7.0 0.00 0.00 0.00 85 1013.4
20260506013440 46 337 2.6 7.8 0.00 0.00 0.00 85 1013.4
20260506012943 47 14 2.6 7.8 0.00 0.00 0.00 85 1013.4
20260506012443 47 340 2.6 8.7 0.00 0.00 0.00 85 1013.5
20260506011943 47 324 2.6 8.7 0.00 0.00 0.00 85 1013.5
20260506011442 47 319 2.6 7.0 0.00 0.00 0.00 86 1013.6
20260506010943 46 23 3.5 7.0 0.00 0.00 0.00 86 1013.5
20260506010442 46 340 3.5 7.0 0.00 0.00 0.00 86 1013.6
20260506010035 46 310 3.5 8.7 0.00 0.00 0.00 87 1013.6
20260506004936 46 309 3.5 8.7 0.00 0.00 0.00 87 1013.7
20260506004437 47 317 3.5 8.7 0.00 0.00 0.00 87 1013.7
20260506003937 47 327 4.3 9.6 0.00 0.00 0.00 86 1013.7
20260506003437 47 341 5.2 9.6 0.00 0.00 0.00 87 1013.7
20260506003248 47 336 5.2 9.6 0.00 0.00 0.00 86 1013.6
20260506002751 47 333 4.3 9.6 0.00 0.00 0.00 86 1013.7
20260506001937 47 329 4.3 9.6 0.00 0.00 0.00 85 1013.8
20260506001436 48 341 3.5 9.6 0.00 0.00 0.00 85 1013.8
20260506000936 48 329 4.3 10.4 0.00 0.00 0.00 84 1013.7
20260506000438 48 318 3.5 10.4 0.00 0.00 0.00 84 1013.7
20260506000241 48 326 3.5 9.6 0.00 0.00 0.00 83 1013.6
20260505235437 48 345 4.3 9.6 0.00 0.00 0.00 83 1013.5
20260505234935 48 344 4.3 10.4 0.00 0.00 0.00 82 1013.5
20260505234742 49 342 5.2 10.4 0.00 0.00 0.00 82 1013.4
20260505233933 49 330 3.5 9.6 0.00 0.00 0.00 82 1013.4
20260505233435 49 337 3.5 8.7 0.00 0.00 0.00 82 1013.5
20260505232935 49 351 3.5 8.7 0.00 0.00 0.00 82 1013.5
20260505232436 49 330 3.5 9.6 0.00 0.00 0.00 82 1013.5
20260505231936 49 347 4.3 10.4 0.00 0.00 0.00 82 1013.4
20260505231746 49 351 5.2 11.3 0.00 0.00 0.00 81 1013.5
20260505230936 49 23 4.3 11.3 0.00 0.00 0.00 81 1013.4
20260505230435 49 353 3.5 10.4 0.00 0.00 0.00 82 1013.5
20260505225935 49 307 3.5 10.4 0.00 0.00 0.00 82 1013.5
20260505225434 49 36 3.5 9.6 0.00 0.00 0.00 83 1013.6
20260505225243 49 336 3.5 9.6 0.00 0.00 0.00 83 1013.6
20260505224433 49 343 3.5 9.6 0.00 0.00 0.00 82 1013.6
20260505223935 49 326 3.5 10.4 0.00 0.00 0.00 82 1013.7
20260505223435 49 334 3.5 10.4 0.00 0.00 0.00 83 1013.7
20260505222934 49 332 3.5 10.4 0.00 0.00 0.00 83 1013.8
20260505222434 50 5 3.5 11.3 0.00 0.00 0.00 83 1013.7
20260505221932 50 58 3.5 11.3 0.00 0.00 0.00 81 1013.7
20260505221433 50 332 3.5 11.3 0.00 0.00 0.00 80 1013.7
20260505220933 50 333 2.6 9.6 0.00 0.00 0.00 80 1013.8
20260505220432 50 350 2.6 7.8 0.00 0.00 0.00 80 1013.8
20260505215933 50 28 2.6 7.8 0.00 0.00 0.00 80 1013.7
20260505215431 50 349 2.6 9.6 0.00 0.00 0.00 81 1013.7
20260505214931 50 341 2.6 9.6 0.00 0.00 0.00 81 1013.7
20260505214432 50 316 2.6 8.7 0.00 0.00 0.00 82 1013.8
20260505213934 50 316 2.6 8.7 0.00 0.00 0.00 82 1013.7
20260505213434 50 324 2.6 9.6 0.00 0.00 0.00 83 1013.6
20260505212932 50 348 3.5 9.6 0.00 0.00 0.00 83 1013.6
20260505212432 50 348 3.5 9.6 0.00 0.00 0.00 83 1013.6
20260505212301 51 73 2.6 9.6 0.00 0.00 0.00 83 1013.6
20260505211433 50 322 2.6 8.7 0.00 0.00 0.00 83 1013.6
20260505210932 51 313 2.6 8.7 0.00 0.00 0.00 83 1013.6
20260505210433 51 326 1.7 7.8 0.00 0.00 0.00 83 1013.7
20260505205931 51 22 1.7 7.8 0.00 0.00 0.00 83 1013.7
20260505205431 51 326 2.6 8.7 0.00 0.00 0.00 82 1013.7
20260505204931 51 318 2.6 8.7 0.00 0.00 0.00 82 1013.7
20260505204744 51 251 1.7 7.0 0.00 0.00 0.00 82 1013.7
20260505203931 51 21 2.6 8.7 0.00 0.00 0.00 82 1013.7
20260505203431 51 80 3.5 9.6 0.00 0.00 0.00 82 1013.6
20260505202931 51 331 3.5 9.6 0.00 0.00 0.00 82 1013.6
20260505202431 51 325 2.6 9.6 0.00 0.00 0.00 82 1013.6
20260505202300 51 334 2.6 8.7 0.00 0.00 0.00 81 1013.6
20260505201431 51 40 2.6 8.7 0.00 0.00 0.00 81 1013.6
20260505200932 51 66 2.6 8.7 0.00 0.00 0.00 81 1013.6
20260505200433 51 344 2.6 7.0 0.00 0.00 0.00 81 1013.4
20260505195933 51 3 1.7 6.1 0.00 0.00 0.00 81 1013.4
20260505195746 51 355 1.7 6.1 0.00 0.00 0.00 80 1013.4
20260505194948 51 24 1.7 7.0 0.00 0.00 0.00 80 1013.3
20260505194435 51 13 1.7 8.7 0.00 0.00 0.00 80 1013.4
20260505193933 51 32 1.7 8.7 0.00 0.00 0.00 80 1013.3
20260505193433 51 339 1.7 7.0 0.00 0.00 0.00 80 1013.3
20260505192932 52 343 2.6 7.8 0.00 0.00 0.00 80 1013.3
20260505192432 52 349 2.6 7.8 0.00 0.00 0.00 79 1013.3
20260505191937 52 2 3.5 9.6 0.00 0.00 0.00 78 1013.2
20260505191432 52 359 3.5 9.6 0.00 0.00 0.00 78 1013.2
20260505191248 52 347 2.6 9.6 0.00 0.00 0.00 77 1013.2
20260505190433 52 9 1.7 7.8 0.00 0.00 0.00 76 1013.2
20260505190239 53 343 2.6 9.6 0.00 0.00 0.00 76 1013.2
20260505185434 53 352 2.6 9.6 0.00 0.00 0.00 76 1013.1
20260505184932 53 11 2.6 10.4 0.00 0.00 0.00 76 1013.1
20260505184433 53 9 2.6 10.4 0.00 0.00 0.00 76 1012.9
20260505183932 53 341 1.7 7.8 0.00 0.00 0.00 75 1012.8
20260505183433 53 28 1.7 7.8 0.00 0.00 0.00 75 1012.8
20260505182933 54 37 2.6 8.7 0.00 0.00 0.00 74 1012.9
20260505182432 54 213 2.6 8.7 0.00 0.00 0.00 73 1012.9
20260505181932 54 337 2.6 7.8 0.00 0.00 0.00 72 1012.8
20260505181744 54 338 1.7 7.0 0.00 0.00 0.00 71 1012.7
20260505181245 54 58 1.7 7.8 0.00 0.00 0.00 71 1012.7
20260505180432 54 240 2.6 7.8 0.00 0.00 0.00 72 1012.7
20260505175933 55 48 2.6 7.8 0.00 0.00 0.00 72 1012.7
20260505175433 55 58 1.7 7.8 0.00 0.00 0.00 71 1012.7
20260505174934 55 30 1.7 7.0 0.00 0.00 0.00 71 1012.7
20260505174432 55 68 2.6 7.0 0.00 0.00 0.00 71 1012.7
20260505173932 55 63 2.6 7.0 0.00 0.00 0.00 71 1012.8
20260505173433 56 96 3.5 10.4 0.00 0.00 0.00 70 1012.7
20260505172931 56 351 3.5 10.4 0.00 0.00 0.00 68 1012.6
20260505172432 56 62 2.6 9.6 0.00 0.00 0.00 68 1012.6
20260505171931 56 319 2.6 9.6 0.00 0.00 0.00 67 1012.6
20260505171432 56 36 3.5 13.0 0.00 0.00 0.00 68 1012.5
20260505170931 57 93 2.6 13.0 0.00 0.00 0.00 67 1012.7
20260505170432 57 66 2.6 9.6 0.00 0.00 0.00 66 1012.6
20260505170244 58 76 2.6 9.6 0.00 0.00 0.00 65 1012.4
20260505165747 58 63 3.5 9.6 0.00 0.00 0.00 66 1012.3
20260505164932 58 230 3.5 9.6 0.00 0.00 0.00 65 1012.1
20260505164431 59 230 3.5 20.0 0.00 0.00 0.00 64 1011.8
20260505163931 59 228 3.5 20.0 0.00 0.00 0.00 65 1011.9
20260505163431 59 228 3.5 12.2 0.00 0.00 0.00 64 1011.6
20260505162931 59 227 3.5 12.2 0.00 0.00 0.00 65 1011.7
20260505162431 60 231 2.6 12.2 0.00 0.00 0.00 64 1011.5
20260505161934 60 229 2.6 7.0 0.00 0.00 0.00 63 1011.3
20260505161431 60 227 2.6 7.0 0.00 0.00 0.00 64 1010.8
20260505160932 59 229 2.6 7.0 0.00 0.00 0.00 65 1011.2
20260505160434 60 226 3.5 9.6 0.00 0.00 0.00 65 1011.9
20260505152932 60 229 3.5 7.0 0.00 0.00 0.00 63 1010.7
20260505152432 60 228 2.6 7.0 0.00 0.00 0.00 64 1010.8
20260505151932 60 231 2.6 7.8 0.00 0.00 0.00 64 1011.5
20260505151432 60 227 2.6 7.8 0.00 0.00 0.00 64 1011.5
20260505150930 60 231 2.6 5.2 0.00 0.00 0.00 64 1011.3
20260505150430 60 228 2.6 6.1 0.00 0.00 0.00 64 1011.4
20260505150242 60 230 2.6 7.8 0.00 0.00 0.00 65 1011.5
20260505140427 60 226 1.7 5.2 0.00 0.00 0.00 65 1011.7
20260505124926 61 231 3.5 8.7 0.00 0.00 0.00 65 1011.7
20260505124421 61 233 3.5 6.1 0.00 0.00 0.00 64 1011.9
20260505123921 61 227 2.6 5.2 0.00 0.00 0.00 64 1011.7
20260505123435 61 229 2.6 6.1 0.00 0.00 0.00 62 1011.2
20260505122928 61 226 2.6 7.8 0.00 0.00 0.00 62 1011.5
20260505122422 61 230 2.6 7.8 0.00 0.00 0.00 64 1011.6
20260505121921 61 331 3.5 9.6 0.00 0.00 0.00 65 1011.9
20260505121421 61 246 3.5 10.4 0.00 0.00 0.00 65 1012.1
20260505121232 61 359 5.2 11.3 0.00 0.00 0.00 65 1012.3
20260505120421 62 344 5.2 11.3 0.00 0.00 0.00 67 1012.4
20260505115923 63 345 4.3 11.3 0.00 0.00 0.00 62 1011.9
20260505115733 64 343 3.5 9.6 0.00 0.00 0.00 55 1009.7
20260505114923 63 355 2.6 9.6 0.00 0.00 0.00 53 1009.5
20260505114421 62 153 1.7 9.6 0.00 0.00 0.00 54 1009.8
20260505113921 61 64 1.7 6.1 0.00 0.00 0.00 55 1011.4
20260505113419 61 347 2.6 9.6 0.00 0.00 0.00 55 1012.7
20260505112919 62 357 3.5 9.6 0.00 0.00 0.00 56 1012.6
20260505112419 63 340 3.5 9.6 0.00 0.00 0.00 56 1010.9
20260505111920 63 48 2.6 9.6 0.00 0.00 0.00 55 1010.2
20260505111421 62 50 1.7 9.6 0.00 0.00 0.00 55 1010.2
20260505110920 62 240 2.6 9.6 0.00 0.00 0.00 56 1010.7
20260505110423 61 35 2.6 8.7 0.00 0.00 0.00 56 1011.3
20260505101914 60 37 2.6 7.8 0.00 0.00 0.00 63 1011.0
20260505101414 59 37 2.6 7.0 0.00 0.00 0.00 66 1011.2
20260505100915 59 33 2.6 6.1 0.00 0.00 0.00 66 1011.3
20260505100415 59 37 3.5 6.1 0.00 0.00 0.00 67 1011.3
20260505100012 59 34 2.6 7.8 0.00 0.00 0.00 67 1011.3
20260505094914 59 74 1.7 7.8 0.00 0.00 0.00 67 1011.1
20260505094728 58 214 1.7 7.0 0.00 0.00 0.00 66 1010.9
20260505093915 58 343 1.7 5.2 0.00 0.00 0.00 69 1011.4
20260505093413 57 23 1.7 6.1 0.00 0.00 0.00 70 1011.8
20260505092916 57 134 1.7 6.1 0.00 0.00 0.00 70 1011.5
20260505092412 57 116 1.7 6.1 0.00 0.00 0.00 68 1011.3
20260505091915 56 85 1.7 6.1 0.00 0.00 0.00 72 1011.2
20260505091414 56 296 1.7 7.8 0.00 0.00 0.00 74 1011.3
20260505090913 56 150 1.7 7.8 0.00 0.00 0.00 76 1011.1
20260505090415 55 14 1.7 7.8 0.00 0.00 0.00 78 1011.8
20260505085916 55 252 2.6 7.8 0.00 0.00 0.00 78 1012.0
20260505085415 55 284 1.7 7.8 0.00 0.00 0.00 79 1012.0
20260505084915 54 325 1.7 5.2 0.00 0.00 0.00 80 1012.2
20260505084412 54 74 1.7 7.0 0.00 0.00 0.00 81 1012.0
20260505083910 54 344 2.6 7.0 0.00 0.00 0.00 81 1012.5
20260505083721 54 314 1.7 7.0 0.00 0.00 0.00 80 1012.5
20260505082909 54 0 0.9 4.3 0.00 0.00 0.00 79 1012.2
20260505082409 53 0 0.9 4.3 0.00 0.00 0.00 82 1011.9
20260505081909 52 144 0.9 3.5 0.00 0.00 0.00 89 1011.9
20260505081409 52 280 0.9 3.5 0.00 0.00 0.00 91 1012.5
20260505080928 51 174 0.9 2.6 0.00 0.00 0.00 94 1012.1
20260505075908 49 0 0.0 2.6 0.00 0.00 0.00 96 1011.9
20260505075407 48 252 0.0 2.6 0.00 0.00 0.00 97 1012.8
20260505075131 48 153 0.0 2.6 0.00 0.00 0.00 97 1012.8
20260505074406 48 163 0.0 1.7 0.00 0.00 0.00 97 1012.8
20260505073906 48 0 0.0 0.9 0.00 0.00 0.00 98 1012.7
20260505073406 48 0 0.0 1.7 0.00 0.00 0.00 98 1012.7
20260505072907 47 0 0.0 1.7 0.00 0.00 0.00 98 1012.8
20260505072405 47 240 0.0 1.7 0.00 0.00 0.00 98 1012.8
20260505071905 46 0 0.0 0.9 0.00 0.00 0.00 98 1012.8
20260505071405 46 0 0.0 0.9 0.00 0.00 0.00 98 1012.9
20260505070906 46 0 0.0 1.7 0.00 0.00 0.00 98 1013.0
20260505070406 45 0 0.0 1.7 0.00 0.00 0.00 98 1013.1
20260505065904 45 138 0.0 1.7 0.00 0.00 0.00 98 1013.1
20260505065406 44 0 0.0 2.6 0.00 0.00 0.00 98 1013.2
20260505064905 44 0 0.9 2.6 0.00 0.00 0.00 98 1013.3
20260505064405 44 115 0.9 2.6 0.00 0.00 0.00 98 1013.4
20260505064216 44 150 0.0 1.7 0.00 0.00 0.00 98 1013.4
20260505063719 43 0 0.0 1.7 0.00 0.00 0.00 98 1013.4
20260505062907 43 0 0.0 1.7 0.00 0.00 0.00 98 1013.4
20260505062717 42 153 0.0 1.7 0.00 0.00 0.00 98 1013.5
20260505061904 42 0 0.0 1.7 0.00 0.00 0.00 98 1013.6
20260505061403 42 0 0.0 1.7 0.00 0.00 0.00 98 1013.7
20260505060900 41 89 0.0 1.7 0.00 0.00 0.00 98 1013.7
20260505060358 41 0 0.0 1.7 0.00 0.00 0.00 98 1013.8
20260505055901 41 0 0.0 1.7 0.00 0.00 0.00 98 1013.9
20260505055401 40 0 0.0 0.9 0.00 0.00 0.00 98 1014.1
20260505054859 40 0 0.0 0.0 0.00 0.00 0.00 98 1014.2
20260505054359 40 0 0.0 2.6 0.00 0.00 0.00 98 1014.2
20260505053859 40 0 0.0 2.6 0.00 0.00 0.00 98 1014.3
20260505053714 39 0 0.0 1.7 0.00 0.00 0.00 98 1014.4
20260505052859 39 0 0.0 0.9 0.00 0.00 0.00 98 1014.6
20260505052359 39 0 0.0 0.0 0.00 0.00 0.00 98 1014.7
20260505051859 39 0 0.0 1.7 0.00 0.00 0.00 98 1014.8
20260505051721 38 0 0.0 1.7 0.00 0.00 0.00 98 1014.5
20260505051230 38 0 0.0 1.7 0.00 0.00 0.00 98 1014.4
20260505050400 38 0 0.0 1.7 0.00 0.00 0.00 98 1014.4
20260505041358 38 0 0.0 2.6 0.00 0.00 0.00 97 1014.8
20260505040858 39 0 0.0 2.6 0.00 0.00 0.00 97 1014.7
20260505040354 39 171 0.0 2.6 0.00 0.00 0.00 97 1014.8
20260505035854 39 98 0.0 2.6 0.00 0.00 0.00 97 1014.6
20260505035354 39 0 0.0 2.6 0.00 0.00 0.00 97 1014.6
20260505034854 39 70 0.0 2.6 0.00 0.00 0.00 97 1014.7
20260505034354 39 203 0.0 1.7 0.00 0.00 0.00 97 1014.7
20260505033855 39 0 0.0 0.9 0.00 0.00 0.00 97 1014.9
20260505033355 40 0 0.0 0.0 0.00 0.00 0.00 97 1015.0
20260505032856 40 0 0.0 0.0 0.00 0.00 0.00 97 1014.9
20260505032354 40 0 0.0 0.0 0.00 0.00 0.00 97 1014.9
20260505031854 40 0 0.0 1.7 0.00 0.00 0.00 97 1015.0
20260505031353 40 0 0.0 1.7 0.00 0.00 0.00 97 1014.8
20260505031228 40 0 0.0 0.9 0.00 0.00 0.00 97 1014.8
20260505030353 40 0 0.0 0.0 0.00 0.00 0.00 97 1014.9
20260505025849 40 0 0.0 0.0 0.00 0.00 0.00 97 1014.9
20260505025349 41 0 0.0 0.0 0.00 0.00 0.00 96 1014.9
20260505024850 41 0 0.0 0.0 0.00 0.00 0.00 96 1014.8
20260505024704 41 0 0.0 1.7 0.00 0.00 0.00 97 1014.7